Погода в Макеевке

Украина / Черниговская область     50°25′20″N   32°29′53″E
темп.,
°C
ветер,
м/с
пор.,
м/с
влажн.,
%
обл.,
%
осадки,
мм/ч
давл.,
гПа
погр.,
м
17 июня, чт
чт1700:00+16ссв399511 2.0 1015166
03:00+16св411950 2.1 1015219
06:00+16св512955 0.1 1017307
09:00+20св71185100 0.1 1018555
12:00+23св7973100 0.0 10181113
15:00+24св797618 0.2 10181195
18:00+22св7118226 0.3 1019776
21:00+19св613820 0.4 1020521
18 июня, пт
пт1800:00+17св614830 0.0 1021407
03:00+16св614890 0.0 1020378
06:00+15св613880 0.0 1021374
09:00+19всв710790 0.0 1021555
12:00+22всв787354 0.0 10211010
15:00+23в687695 0.0 10221175
18:00+23всв59780 0.0 1021955
21:00+19всв411890 0.0 1022293
19 июня, сб
сб1900:00+16всв411920 0.0 1023244
03:00+15всв49960 0.0 1022175
06:00+15всв49945 0.0 1022226
09:00+19всв5108449 0.0 1022473
12:00+23в796931 0.0 10211046
15:00+24в697097 0.0 10201455
18:00+22в51079100 0.1 1020503
21:00+21в51083100 0.1 1020363
20 июня, вс
вс2000:00+19в4119010 0.1 1021308
03:00+17всв49961 0.1 1020187
06:00+17в41092100 0.0 1020255
09:00+20в5107699 0.0 1020409
12:00+24в686359 0.0 1019789
15:00+25в6863100 0.0 10181051
18:00+24в61074100 0.0 1017739
21:00+20в5148461 0.0 1017440
21 июня, пн
пн2100:00+18всв41292100 0.0 1016283
03:00+17всв41095100 0.6 1016209
06:00+17всв513933 0.3 1015281
09:00+22в697894 0.3 1015446
12:00+26в71164100 0.0 1014757
15:00+27вюв71265100 0.0 10141364
18:00+26вюв61171100 0.0 1014618
21:00+22в5137899 0.0 1015330